User: anonymous   Login
Location: NJAA Observatory
(40.6819°N, 74.8979°W)
Time: 12:25:40
(UTC-05:00)
Language:

Meteor 2-9 Rocket - Orbit

View from above orbital plane
View from above orbital plane
View from above satellite
View from above satellite

Ground track
Ground track

The orbit data is extracted from the following two-line orbital elements,

1 13719U 82116B   18017.97819913  .00000035  00000-0  11082-4 0  9997
2 13719  81.2555 149.9583 0072653 100.0152  35.1357 14.14617701810735
Epoch (UTC): 17 January 2018 23:28:36
Eccentricity: 0.0072653
inclination: 81.2555°
perigee height: 791 km
apogee height: 896 km
right ascension of ascending node: 149.9583°
argument of perigee: 100.0152°
revolutions per day: 14.14617701
mean anomaly at epoch: 35.1357°
orbit number at epoch: 81073

The dashed part of the orbit path shows where the satellite is in the earth's shadow,  

DLR